Weather in Glyadyanskoe

Russia / Kurgan Oblast     54°54′31″N   65°05′25″E
temp.,
°C
wind,
m/s
gust,
m/s
humid.,
%
clouds,
%
prec.,
mm/h
press.,
hPa
HPBL,
m
4 july, mon
mon423:00+15sw116499 0.0 100511
02:00+15n3580100 0.0 1003130
05:00+13nne5996100 0.4 1003301
08:00+14nne71092100 0.1 1003527
11:00+14nne81185100 0.1 1003857
14:00+14nne91277100 0.0 1004917
17:00+14nne91365100 0.0 10041049
20:00+13nne81373100 0.0 1004848
5 july, tue
tue523:00+12n8137675 0.0 1004759
02:00+11n71280100 0.0 1004706
05:00+11n71283100 0.0 1004787
08:00+12n71077100 0.0 1005988
11:00+14n797083 0.0 10061007
14:00+16n7106099 0.0 10071338
17:00+18nne8105228 0.3 10081607
20:00+15n486448 0.0 1008364
6 july, wed
wed623:00+13nw2371100 0.0 100947
02:00+13nw356790 0.0 1009130
05:00+13nnw3771100 0.0 1010194
08:00+14nnw357195 0.0 1011245
11:00+20n454714 0.0 10111702
14:00+17ene566389 0.0 1012465
17:00+18ene346194 0.0 1012549
20:00+14nne2273100 0.0 101352
7 july, thu
thu723:00+12nne2277100 0.0 101413
02:00+13n227592 0.0 101416
05:00+13nne238099 0.0 101465
08:00+17nne347567 0.0 1015478
11:00+17nne357974 0.0 1016469
14:00+22ne456292 0.1 10151327
17:00+22ne56635 0.2 10151007
20:00+20nne36795 0.1 1015184
8 july, fri
fri823:00+16nne349216 1.7 101665
02:00+14nne239391 0.0 101630
05:00+14nne22931 0.0 101732
08:00+19nne23751 0.0 1017275
11:00+23nne22544 0.0 10171065
14:00+25ne2246100 0.0 10162040
17:00+23nnw1265100 0.0 1016174
20:00+21sw1168100 0.0 101611